Location: Dehesa de la Cepeda
(40.6574°N, 4.3013°W)
Time: 04:25:07
(UTC+00:00)

Spot 4 - Pass Details

Date: 05 July 2020
Orbit: 705 x 722 km, 98.3° (Epoch: 11 August)

Event Time Altitude Azimuth Distance (km) Brightness Sun altitude
Exits shadow 22:59:06 53° 95° (E) 872 4.1 -23.8°
Maximum altitude 22:59:33 55° 73° (ENE) 851 4.1 -23.8°
Drops below altitude 10° 23:04:13 10° 356° (N) 2,185 7.3 -24.1°
Sets 23:06:31 0° 352° (N) 3,107 8.5 -24.3°
